Total_Precipitation_Accumulation
0.02 0.01 0.00 0.00 0.00 0.01 0.00 0.00 0.00 0.00 0.00 0.01 0.01 0.00 0.00 0.00 0.00 0.01 0.03 0.03 0.04 0.05 0.03 0.04 0.04 0.01 0.01 0.02 0.08 0.17 0.24 0.24 0.36 0.41 0.36 0.30 0.20 0.10 0.05 0.02 0.02 0.01 0.00
0.03 0.01 0.00 0.00 0.00 0.00 0.01 0.00 0.00 0.00 0.01 0.01 0.01 0.00 0.00 0.00 0.00 0.00 0.03 0.03 0.05 0.09 0.08 0.11 0.10 0.05 0.04 0.04 0.08 0.15 0.23 0.23 0.27 0.34 0.39 0.45 0.44 0.30 0.15 0.07 0.08 0.05 0.01
0.05 0.02 0.02 0.01 0.02 0.02 0.02 0.01 0.00 0.00 0.00 0.01 0.00 0.00 0.00 0.00 0.00 0.00 0.01 0.02 0.04 0.10 0.17 0.22 0.22 0.18 0.13 0.10 0.10 0.15 0.20 0.21 0.23 0.28 0.29 0.29 0.28 0.26 0.22 0.16 0.12 0.08 0.03
0.10 0.06 0.04 0.06 0.05 0.03 0.03 0.02 0.00 0.00 0.00 0.00 0.00 0.00 0.00 0.00 0.00 0.00 0.00 0.00 0.01 0.05 0.12 0.19 0.29 0.36 0.31 0.23 0.14 0.11 0.11 0.13 0.14 0.15 0.13 0.11 0.10 0.11 0.13 0.12 0.10 0.09 0.05
0.25 0.17 0.15 0.14 0.11 0.09 0.05 0.03 0.02 0.01 0.00 0.00 0.00 0.00 0.00 0.00 0.00 0.00 0.00 0.00 0.00 0.00 0.01 0.04 0.11 0.14 0.22 0.29 0.20 0.11 0.08 0.07 0.06 0.06 0.06 0.04 0.03 0.03 0.04 0.06 0.05 0.05 0.04
0.48 0.41 0.36 0.24 0.16 0.16 0.16 0.13 0.08 0.05 0.03 0.01 0.00 0.00 0.00 0.00 0.00 0.00 0.00 0.00 0.00 0.00 0.00 0.00 0.02 0.02 0.08 0.22 0.25 0.13 0.06 0.05 0.06 0.05 0.03 0.01 0.01 0.01 0.01 0.02 0.02 0.01 0.02
0.50 0.52 0.51 0.42 0.29 0.23 0.25 0.27 0.26 0.20 0.12 0.04 0.05 0.04 0.02 0.00 0.00 0.00 0.00 0.00 0.00 0.00 0.00 0.00 0.02 0.03 0.03 0.03 0.06 0.08 0.07 0.08 0.10 0.07 0.04 0.01 0.00 0.00 0.00 0.00 0.01 0.02 0.02
0.42 0.41 0.55 0.58 0.43 0.37 0.39 0.46 0.45 0.41 0.28 0.14 0.20 0.27 0.15 0.09 0.03 0.00 0.00 0.00 0.00 0.00 0.00 0.00 0.00 0.00 0.01 0.03 0.01 0.01 0.03 0.07 0.06 0.05 0.02 0.01 0.00 0.00 0.00 0.00 0.01 0.02 0.04
0.58 0.50 0.59 0.64 0.51 0.48 0.51 0.53 0.48 0.57 0.55 0.37 0.34 0.50 0.38 0.29 0.23 0.06 0.00 0.00 0.00 0.00 0.00 0.00 0.00 0.00 0.00 0.01 0.01 0.00 0.00 0.01 0.02 0.02 0.01 0.00 0.00 0.01 0.01 0.03 0.04 0.04 0.04
0.83 0.62 0.55 0.53 0.51 0.50 0.46 0.37 0.41 0.60 0.78 0.69 0.57 0.49 0.41 0.32 0.28 0.18 0.06 0.01 0.00 0.01 0.00 0.00 0.00 0.00 0.01 0.00 0.01 0.00 0.00 0.00 0.01 0.01 0.01 0.01 0.01 0.01 0.02 0.04 0.04 0.04 0.03
1.05 0.79 0.60 0.52 0.50 0.48 0.42 0.40 0.49 0.63 0.77 0.89 0.83 0.61 0.44 0.37 0.25 0.22 0.18 0.09 0.03 0.01 0.01 0.00 0.00 0.00 0.00 0.00 0.00 0.00 0.00 0.00 0.00 0.00 0.01 0.01 0.02 0.02 0.02 0.02 0.02 0.02 0.01
1.07 0.95 0.78 0.63 0.49 0.40 0.34 0.39 0.54 0.56 0.59 0.68 0.66 0.51 0.40 0.34 0.35 0.32 0.25 0.24 0.16 0.03 0.01 0.01 0.00 0.00 0.00 0.00 0.00 0.00 0.01 0.00 0.00 0.00 0.00 0.00 0.01 0.01 0.01 0.01 0.01 0.01 0.01
0.91 0.85 0.75 0.62 0.46 0.35 0.32 0.38 0.47 0.41 0.37 0.42 0.42 0.35 0.32 0.30 0.32 0.31 0.28 0.32 0.32 0.15 0.05 0.01 0.01 0.00 0.00 0.00 0.00 0.00 0.00 0.00 0.00 0.00 0.00 0.00 0.00 0.01 0.01 0.00 0.00 0.00 0.00
0.72 0.63 0.58 0.52 0.43 0.35 0.30 0.33 0.34 0.28 0.25 0.28 0.26 0.20 0.18 0.23 0.30 0.29 0.28 0.34 0.34 0.34 0.23 0.06 0.02 0.02 0.01 0.00 0.00 0.00 0.00 0.00 0.00 0.00 0.00 0.00 0.00 0.00 0.00 0.00 0.00 0.00 0.00
0.45 0.43 0.44 0.44 0.39 0.32 0.27 0.27 0.26 0.22 0.20 0.17 0.16 0.16 0.15 0.17 0.23 0.27 0.28 0.28 0.28 0.31 0.33 0.19 0.09 0.05 0.04 0.02 0.01 0.01 0.00 0.00 0.00 0.00 0.00 0.00 0.00 0.00 0.00 0.00 0.00 0.00 0.00
0.37 0.38 0.38 0.34 0.30 0.24 0.19 0.19 0.21 0.22 0.18 0.15 0.16 0.15 0.14 0.14 0.17 0.21 0.26 0.30 0.29 0.28 0.29 0.22 0.16 0.10 0.11 0.08 0.08 0.03 0.01 0.01 0.00 0.00 0.00 0.00 0.00 0.00 0.00 0.00 0.00 0.00 0.00
0.31 0.30 0.26 0.24 0.30 0.26 0.20 0.22 0.21 0.18 0.17 0.17 0.15 0.14 0.17 0.22 0.19 0.18 0.24 0.28 0.31 0.33 0.29 0.26 0.15 0.11 0.14 0.14 0.17 0.09 0.04 0.02 0.03 0.03 0.01 0.00 0.00 0.00 0.00 0.00 0.00 0.00 0.00
0.25 0.27 0.24 0.20 0.27 0.35 0.36 0.33 0.29 0.24 0.20 0.15 0.10 0.09 0.09 0.13 0.16 0.20 0.25 0.26 0.30 0.32 0.30 0.28 0.23 0.18 0.21 0.20 0.22 0.18 0.12 0.08 0.08 0.12 0.14 0.06 0.03 0.02 0.01 0.00 0.00 0.00 0.00
0.23 0.25 0.34 0.30 0.30 0.35 0.41 0.38 0.32 0.26 0.20 0.15 0.11 0.09 0.07 0.07 0.12 0.17 0.24 0.31 0.33 0.32 0.32 0.26 0.29 0.31 0.27 0.25 0.25 0.22 0.18 0.17 0.16 0.16 0.24 0.19 0.11 0.07 0.04 0.03 0.01 0.00 0.00
0.30 0.29 0.26 0.25 0.29 0.35 0.41 0.36 0.28 0.26 0.20 0.15 0.13 0.10 0.08 0.09 0.09 0.14 0.22 0.33 0.42 0.45 0.42 0.35 0.34 0.36 0.33 0.29 0.24 0.23 0.25 0.24 0.23 0.19 0.19 0.22 0.20 0.14 0.09 0.07 0.05 0.03 0.02
0.20 0.22 0.18 0.17 0.21 0.28 0.30 0.24 0.19 0.17 0.18 0.15 0.13 0.11 0.11 0.09 0.07 0.10 0.12 0.23 0.33 0.43 0.49 0.50 0.45 0.41 0.36 0.30 0.25 0.25 0.24 0.28 0.25 0.24 0.20 0.19 0.19 0.17 0.15 0.13 0.10 0.08 0.06
0.09 0.14 0.13 0.14 0.16 0.18 0.20 0.15 0.16 0.17 0.19 0.19 0.16 0.13 0.13 0.09 0.05 0.05 0.05 0.07 0.12 0.20 0.31 0.41 0.47 0.44 0.43 0.38 0.33 0.29 0.24 0.22 0.23 0.24 0.22 0.24 0.24 0.21 0.20 0.18 0.19 0.20 0.16
0.06 0.08 0.08 0.12 0.14 0.11 0.09 0.07 0.16 0.27 0.26 0.19 0.13 0.14 0.16 0.12 0.08 0.10 0.11 0.09 0.10 0.10 0.10 0.17 0.26 0.32 0.35 0.38 0.31 0.25 0.21 0.21 0.24 0.24 0.20 0.19 0.20 0.19 0.18 0.16 0.17 0.17 0.18
0.03 0.06 0.07 0.13 0.12 0.07 0.05 0.05 0.12 0.20 0.26 0.23 0.15 0.14 0.18 0.20 0.22 0.20 0.15 0.14 0.16 0.16 0.10 0.07 0.13 0.21 0.23 0.28 0.29 0.26 0.23 0.19 0.17 0.14 0.10 0.08 0.09 0.10 0.11 0.11 0.11 0.10 0.11
0.01 0.05 0.07 0.09 0.06 0.02 0.01 0.03 0.07 0.20 0.27 0.26 0.19 0.20 0.24 0.27 0.34 0.27 0.15 0.15 0.20 0.18 0.14 0.11 0.08 0.10 0.12 0.17 0.21 0.24 0.25 0.21 0.20 0.17 0.13 0.08 0.07 0.06 0.06 0.08 0.07 0.07 0.06
0.00 0.01 0.03 0.04 0.03 0.03 0.01 0.01 0.03 0.11 0.18 0.22 0.22 0.25 0.31 0.27 0.30 0.22 0.10 0.20 0.30 0.25 0.18 0.20 0.22 0.22 0.20 0.24 0.27 0.28 0.35 0.36 0.34 0.30 0.23 0.18 0.17 0.16 0.15 0.13 0.08 0.05 0.03